This demonstration page uses our WeatherBlox Daily Observations layout. Learn more.

Hourly Observations for September 18, 2019

Temp ( °F °C ) Dew Point ( °F °C ) Humidity (%) Winds ( mph kmh ) Pressure ( in mb ) Visibility ( mi km ) Precip ( " mm )
12:15 am 00:15 Clear 75 23.7 63 17.1 67 67 S 13 20 29.73 1007 10 16.0934 0 0
12:35 am 00:35 Clear 74 23.2 63 17.1 69 69 S 12 19 29.73 1007 10 16.0934 0 0
12:55 am 00:55 Clear 73 22.8 63 17.2 71 71 S 9 15 29.73 1007 10 16.0934 0 0
1:15 am 01:15 Clear 73 22.7 63 17.1 71 71 S 10 17 29.75 1007 10 16.0934 0 0
1:35 am 01:35 Clear 73 22.7 63 17 70 70 S 10 17 29.75 1007 10 16.0934 0 0
1:55 am 01:55 Clear 72 22.2 63 17.1 73 73 S 10 17 29.75 1007 10 16.0934 0 0
2:15 am 02:15 Clear 72 22.2 63 17.1 73 73 S 9 15 29.75 1007 10 16.0934 0 0
2:35 am 02:35 Clear 71 21.7 63 17.1 75 75 S 9 15 29.75 1008 10 16.0934 0 0
2:55 am 02:55 Clear 71 21.7 63 17.1 75 75 S 9 15 29.76 1008 10 16.0934 0 0
8:55 am 08:55 Sunny 69 20.5 65 18.3 87 87 NW 7 11 29.86 1011 10 16.0934 0 0
9:15 am 09:15 Sunny 71 21.5 65 18.3 82 82 NW 7 11 29.87 1011 10 16.0934 0 0
9:35 am 09:35 Sunny 72 22.2 65 18.2 78 78 N 9 15 29.87 1011 10 16.0934 0 0
9:55 am 09:55 Sunny 74 23.2 64 18 73 73 NNE 3 6 29.86 1011 10 16.0934 0 0
10:15 am 10:15 Sunny 74 23.6 60 15.3 60 60 N 9 15 29.86 1011 10 16.0934 0 0
10:35 am 10:35 Sunny 75 24 60 15.7 60 60 N 9 15 29.85 1011 10 16.0934 0 0
10:55 am 10:55 Sunny 76 24.3 56 13.5 51 51 N 12 19 29.86 1011 10 16.0934 0 0
11:15 am 11:15 Sunny 75 23.8 49 9.4 40 40 N 17 28 29.87 1011 10 16.0934 0 0
11:35 am 11:35 Partly Cloudy 74 23.4 48 9 40 40 N 15 24 29.88 1012 10 16.0934 0 0
11:55 am 11:55 Partly Cloudy 75 23.9 48 9 39 39 NNE 17 28 29.88 1012 10 16.0934 0 0
12:15 pm 12:15 Mostly Cloudy 75 24.1 50 9.9 41 41 NNE 13 20 29.88 1012 10 16.0934 0 0
12:35 pm 12:35 Mostly Cloudy 77 25.1 51 10.8 41 41 NE 17 28 29.87 1011 10 16.0934 0 0
12:55 pm 12:55 Mostly Cloudy 75 23.7 50 9.8 41 41 NNE 14 22 29.89 1012 10 16.0934 0 0
1:15 pm 13:15 Cloudy 75 23.7 52 10.9 45 45 NE 13 20 29.89 1012 10 16.0934 0 0
1:35 pm 13:35 Cloudy 77 25.2 54 12 44 44 NNE 14 22 29.87 1011 10 16.0934 0 0
1:55 pm 13:55 Cloudy 76 24.6 53 11.4 44 44 NNE 16 26 29.86 1011 10 16.0934 0 0
2:15 pm 14:15 Cloudy 75 24.1 53 11.9 47 47 NE 13 20 29.86 1011 10 16.0934 0 0
2:35 pm 14:35 Cloudy 76 24.4 54 12.2 47 47 NE 10 17 29.86 1011 10 16.0934 0 0
2:55 pm 14:55 Mostly Cloudy 78 25.5 55 12.9 46 46 NE 13 20 29.85 1011 10 16.0934 0 0
3:15 pm 15:15 Mostly Cloudy 78 25.4 55 12.9 46 46 NE 13 20 29.84 1011 10 16.0934 0 0
3:35 pm 15:35 Partly Cloudy 79 26.1 57 14.1 48 48 NNE 10 17 29.84 1010 10 16.0934 0 0
3:55 pm 15:55 Sunny 80 26.4 58 14.5 48 48 ENE 12 19 29.84 1010 10 16.0934 0 0
4:15 pm 16:15 Sunny 81 27.1 60 15.5 49 49 NE 10 17 29.82 1010 10 16.0934 0 0
4:35 pm 16:35 Sunny 81 27 60 15.5 49 49 NE 8 13 29.82 1010 10 16.0934 0 0
4:55 pm 16:55 Sunny 81 27.1 62 16.4 52 52 NE 8 13 29.82 1010 10 16.0934 0 0
5:15 pm 17:15 Sunny 81 27.1 63 17.1 54 54 NNE 7 11 29.81 1009 10 16.0934 0 0
5:35 pm 17:35 Sunny 80 26.8 63 17.2 56 56 ENE 8 13 29.8 1009 10 16.0934 0 0
5:55 pm 17:55 Sunny 80 26.8 63 17.1 55 55 NE 9 15 29.79 1009 10 16.0934 0 0
6:15 pm 18:15 Sunny 80 26.5 63 17 56 56 NE 8 13 29.8 1009 10 16.0934 0 0
6:35 pm 18:35 Sunny 79 25.9 63 17.1 58 58 NE 7 11 29.8 1009 10 16.0934 0 0
6:55 pm 18:55 Sunny 77 25.2 64 17.5 62 62 NE 5 7 29.82 1010 10 16.0934 0 0
7:15 pm 19:15 Sunny 75 24.1 65 18.1 69 69 NNE 5 7 29.81 1010 10 16.0934 0 0
7:35 pm 19:35 Sunny 73 22.9 63 17 69 69 NNE 7 11 29.82 1010 10 16.0934 0 0
7:55 pm 19:55 Clear 71 21.7 62 16.8 74 74 NNE 6 9 29.84 1011 10 16.0934 0 0
8:15 pm 20:15 Clear 69 20.8 63 17 79 79 NNE 6 9 29.85 1011 10 16.0934 0 0
8:35 pm 20:35 Clear 68 20 63 17.1 83 83 NNE 5 7 29.87 1011 10 16.0934 0 0
8:55 pm 20:55 Clear 68 20 62 16.7 81 81 NNE 6 9 29.87 1011 10 16.0934 0 0
9:15 pm 21:15 Clear 67 19.7 62 16.4 81 81 NNE 6 9 29.87 1012 10 16.0934 0 0
9:35 pm 21:35 Clear 66 19 61 16.3 84 84 NNE 6 9 29.89 1012 10 16.0934 0 0
9:55 pm 21:55 Clear 66 18.9 61 16.3 85 85 NE 6 9 29.89 1012 10 16.0934 0 0
10:15 pm 22:15 Clear 67 19.2 61 16.1 82 82 NE 5 7 29.89 1012 10 16.0934 0 0
10:35 pm 22:35 Clear 67 19.2 61 16 82 82 NE 7 11 29.88 1012 10 16.0934 0 0
10:55 pm 22:55 Clear 67 19.2 61 15.9 81 81 ENE 6 9 29.88 1012 10 16.0934 0 0
11:15 pm 23:15 Clear 66 18.8 60 15.8 83 83 NE 3 6 29.87 1011 10 16.0934 0 0
11:35 pm 23:35 Clear 65 18.5 61 16.1 86 86 Calm 29.88 1012 10 16.0934 0 0
11:55 pm 23:55 Clear 64 18 61 16 88 88 Calm 29.87 1012 10 16.0934 0 0

Powered by AerisWeather